Time,TemperatureF,DewpointF,PressureIn,WindDirection,WindDirectionDegrees,WindSpeedMPH,WindSpeedGustMPH,Humidity,HourlyPrecipIn,Conditions,Clouds,dailyrainin,SoftwareType,DateUTC
2013-01-15 00:00:00,21.7,21.2,30.55,NE,53,12.0,21.0,30,0.00,,,0.00,meteohub,2013-01-15 08:00:00,
2013-01-15 00:05:00,21.7,21.6,30.54,NE,42,16.0,20.0,30,0.00,,,0.00,meteohub,2013-01-15 08:05:00,
2013-01-15 00:10:00,21.7,21.6,30.54,NE,53,12.0,20.0,30,0.00,,,0.00,meteohub,2013-01-15 08:10:00,
2013-01-15 00:15:00,21.7,21.6,30.55,NE,47,8.0,23.0,30,0.00,,,0.00,meteohub,2013-01-15 08:15:00,
2013-01-15 00:20:00,21.9,22.5,30.56,NE,49,13.0,23.0,31,0.00,,,0.00,meteohub,2013-01-15 08:20:00,
2013-01-15 00:25:00,21.9,22.3,30.55,NE,47,17.0,21.0,31,0.00,,,0.00,meteohub,2013-01-15 08:25:00,
2013-01-15 00:30:00,21.9,22.3,30.56,NNE,13,16.0,21.0,31,0.00,,,0.00,meteohub,2013-01-15 08:30:00,
2013-01-15 00:35:00,21.7,22.3,30.56,NE,35,8.0,21.0,31,0.00,,,0.00,meteohub,2013-01-15 08:35:00,
2013-01-15 00:40:00,21.6,22.1,30.56,ENE,60,8.0,19.0,31,0.00,,,0.00,meteohub,2013-01-15 08:40:00,
2013-01-15 00:45:00,21.6,22.1,30.56,East,85,15.0,19.0,31,0.00,,,0.00,meteohub,2013-01-15 08:45:00,
2013-01-15 00:50:00,21.6,22.1,30.57,East,85,15.0,19.0,31,0.00,,,0.00,meteohub,2013-01-15 08:50:00,
2013-01-15 00:55:00,21.6,21.9,30.56,NE,54,12.0,19.0,31,0.00,,,0.00,meteohub,2013-01-15 08:55:00,
2013-01-15 01:00:00,21.6,21.9,30.56,NE,53,16.0,20.0,31,0.00,,,0.00,meteohub,2013-01-15 09:00:00,
2013-01-15 01:05:00,21.4,21.9,30.56,NE,40,15.0,22.0,31,0.00,,,0.00,meteohub,2013-01-15 09:05:00,
2013-01-15 01:10:00,21.6,21.7,30.57,NE,41,13.0,22.0,31,0.00,,,0.00,meteohub,2013-01-15 09:10:00,
2013-01-15 01:15:00,21.7,21.7,30.57,ENE,69,22.0,27.0,31,0.00,,,0.00,meteohub,2013-01-15 09:15:00,
2013-01-15 01:21:00,21.6,21.7,30.57,ENE,58,21.0,27.0,31,0.00,,,0.00,meteohub,2013-01-15 09:21:00,
2013-01-15 01:26:00,21.2,20.8,30.56,NE,47,18.0,27.0,30,0.00,,,0.00,meteohub,2013-01-15 09:26:00,
2013-01-15 01:31:00,21.4,20.8,30.57,NE,46,20.0,25.0,30,0.00,,,0.00,meteohub,2013-01-15 09:31:00,
2013-01-15 01:36:00,21.7,20.8,30.57,NE,37,17.0,23.0,30,0.00,,,0.00,meteohub,2013-01-15 09:36:00,
2013-01-15 01:41:00,22.1,20.8,30.58,NNE,15,17.0,23.0,30,0.00,,,0.00,meteohub,2013-01-15 09:41:00,
2013-01-15 01:46:00,22.3,20.8,30.58,NNE,30,13.0,23.0,30,0.00,,,0.00,meteohub,2013-01-15 09:46:00,
2013-01-15 01:52:00,22.3,21.0,30.58,NNE,27,10.0,23.0,30,0.00,,,0.00,meteohub,2013-01-15 09:52:00,
2013-01-15 01:57:00,21.7,21.0,30.59,ENE,63,8.0,23.0,30,0.00,,,0.00,meteohub,2013-01-15 09:57:00,
2013-01-15 02:02:00,21.6,21.0,30.59,East,97,13.0,23.0,30,0.00,,,0.00,meteohub,2013-01-15 10:02:00,
2013-01-15 02:07:00,22.3,20.3,30.59,East,85,12.0,21.0,29,0.00,,,0.00,meteohub,2013-01-15 10:07:00,
2013-01-15 02:12:00,22.5,20.5,30.59,ENE,63,8.0,21.0,29,0.00,,,0.00,meteohub,2013-01-15 10:12:00,
2013-01-15 02:17:00,22.6,20.7,30.59,NNE,31,12.0,21.0,29,0.00,,,0.00,meteohub,2013-01-15 10:17:00,
2013-01-15 02:23:00,21.7,21.6,30.59,NE,37,10.0,19.0,30,0.00,,,0.00,meteohub,2013-01-15 10:23:00,
2013-01-15 02:28:00,21.4,21.6,30.59,NNE,26,9.0,17.0,30,0.00,,,0.00,meteohub,2013-01-15 10:28:00,
2013-01-15 02:34:00,20.8,21.6,30.59,ENE,58,10.0,17.0,30,0.00,,,0.00,meteohub,2013-01-15 10:34:00,
2013-01-15 02:39:00,21.4,21.6,30.59,NE,34,11.0,17.0,30,0.00,,,0.00,meteohub,2013-01-15 10:39:00,
2013-01-15 02:44:00,21.7,21.4,30.59,NE,44,12.0,17.0,30,0.00,,,0.00,meteohub,2013-01-15 10:44:00,
2013-01-15 02:50:00,21.6,21.4,30.59,NE,39,6.0,17.0,30,0.00,,,0.00,meteohub,2013-01-15 10:50:00,
2013-01-15 02:55:00,21.4,21.2,30.59,NNE,25,10.0,15.0,30,0.00,,,0.00,meteohub,2013-01-15 10:55:00,
2013-01-15 03:00:00,21.2,21.2,30.59,NE,45,11.0,14.0,30,0.00,,,0.00,meteohub,2013-01-15 11:00:00,
2013-01-15 03:06:00,21.6,21.2,30.58,ENE,58,8.0,17.0,30,0.00,,,0.00,meteohub,2013-01-15 11:06:00,
2013-01-15 03:11:00,21.7,21.2,30.58,ENE,64,12.0,17.0,30,0.00,,,0.00,meteohub,2013-01-15 11:11:00,
2013-01-15 03:16:00,21.9,21.0,30.58,NE,37,13.0,16.0,30,0.00,,,0.00,meteohub,2013-01-15 11:16:00,
2013-01-15 03:22:00,22.1,21.0,30.59,NNE,32,10.0,16.0,30,0.00,,,0.00,meteohub,2013-01-15 11:22:00,
2013-01-15 03:27:00,22.1,20.8,30.59,NE,50,17.0,17.0,30,0.00,,,0.00,meteohub,2013-01-15 11:27:00,
2013-01-15 03:32:00,21.9,20.8,30.58,ENE,75,8.0,19.0,30,0.00,,,0.00,meteohub,2013-01-15 11:32:00,
2013-01-15 03:37:00,22.3,20.8,30.59,ENE,78,14.0,19.0,30,0.00,,,0.00,meteohub,2013-01-15 11:37:00,
2013-01-15 03:42:00,22.1,20.8,30.58,ENE,58,11.0,19.0,30,0.00,,,0.00,meteohub,2013-01-15 11:42:00,
2013-01-15 03:47:00,21.9,20.7,30.58,NNE,28,15.0,18.0,30,0.00,,,0.00,meteohub,2013-01-15 11:47:00,
2013-01-15 03:54:00,21.9,20.1,30.57,NE,36,13.0,21.0,29,0.00,,,0.00,meteohub,2013-01-15 11:54:00,
2013-01-15 03:59:00,21.6,20.1,30.57,NE,37,13.0,21.0,29,0.00,,,0.00,meteohub,2013-01-15 11:59:00,
2013-01-15 04:04:00,21.0,20.3,30.58,NE,47,15.0,21.0,29,0.00,,,0.00,meteohub,2013-01-15 12:04:00,
2013-01-15 04:09:00,21.0,20.3,30.58,NE,34,14.0,22.0,29,0.00,,,0.00,meteohub,2013-01-15 12:09:00,
2013-01-15 04:15:00,21.0,20.3,30.58,ENE,57,17.0,22.0,29,0.00,,,0.00,meteohub,2013-01-15 12:15:00,
2013-01-15 04:20:00,21.6,20.5,30.57,NNE,30,13.0,21.0,29,0.00,,,0.00,meteohub,2013-01-15 12:20:00,
2013-01-15 04:26:00,21.7,20.7,30.58,NE,45,9.0,21.0,29,0.00,,,0.00,meteohub,2013-01-15 12:26:00,
2013-01-15 04:31:00,21.6,20.8,30.59,NE,43,11.0,20.0,29,0.00,,,0.00,meteohub,2013-01-15 12:31:00,
2013-01-15 04:37:00,21.7,20.8,30.59,NE,53,10.0,20.0,29,0.00,,,0.00,meteohub,2013-01-15 12:37:00,
2013-01-15 04:42:00,21.6,20.8,30.60,NE,36,10.0,21.0,29,0.00,,,0.00,meteohub,2013-01-15 12:42:00,
2013-01-15 04:47:00,21.0,21.6,30.60,NE,45,14.0,21.0,30,0.00,,,0.00,meteohub,2013-01-15 12:47:00,
2013-01-15 04:52:00,21.6,21.6,30.60,NE,36,8.0,21.0,30,0.00,,,0.00,meteohub,2013-01-15 12:52:00,
2013-01-15 04:57:00,21.4,21.6,30.60,NNE,30,15.0,18.0,30,0.00,,,0.00,meteohub,2013-01-15 12:57:00,
2013-01-15 05:02:00,20.1,21.4,30.60,NE,50,12.0,18.0,29,0.00,,,0.00,meteohub,2013-01-15 13:02:00,
2013-01-15 05:07:00,20.1,21.7,30.61,NE,50,12.0,18.0,29,0.00,,,0.00,meteohub,2013-01-15 13:07:00,
2013-01-15 05:12:00,20.1,21.0,30.60,North,-999,-999.0,18.0,29,0.00,,,0.00,meteohub,2013-01-15 13:12:00,
2013-01-15 05:17:00,20.1,21.6,30.60,North,-999,-999.0,12.0,30,0.00,,,0.00,meteohub,2013-01-15 13:17:00,
2013-01-15 07:08:00,26.8,20.7,30.60,North,-999,-999.0,-999.0,28,-99.99,,,0.00,meteohub,2013-01-15 15:08:00,
2013-01-15 07:14:00,27.0,20.8,30.61,North,-999,-999.0,-999.0,29,-99.99,,,0.00,meteohub,2013-01-15 15:14:00,
2013-01-15 07:19:00,27.5,20.7,30.61,East,82,13.0,-999.0,29,0.00,,,0.00,meteohub,2013-01-15 15:19:00,
2013-01-15 07:24:00,27.9,20.7,30.61,ENE,77,10.0,23.0,29,0.00,,,0.00,meteohub,2013-01-15 15:24:00,
2013-01-15 07:30:00,28.0,20.5,30.61,ENE,71,12.0,23.0,29,0.00,,,0.00,meteohub,2013-01-15 15:30:00,
2013-01-15 07:35:00,28.2,20.3,30.62,ENE,68,7.0,22.0,29,0.00,,,0.00,meteohub,2013-01-15 15:35:00,
2013-01-15 07:41:00,28.2,20.3,30.62,North,11,16.0,21.0,29,0.00,,,0.00,meteohub,2013-01-15 15:41:00,
2013-01-15 07:46:00,28.4,20.3,30.62,East,82,18.0,18.0,29,0.00,,,0.00,meteohub,2013-01-15 15:46:00,
2013-01-15 07:51:00,28.2,20.3,30.63,NNE,16,6.0,18.0,29,0.00,,,0.00,meteohub,2013-01-15 15:51:00,
2013-01-15 07:56:00,27.5,20.3,30.64,NE,43,11.0,18.0,29,0.00,,,0.00,meteohub,2013-01-15 15:56:00,
2013-01-15 08:02:00,26.4,20.3,30.64,NE,39,9.0,18.0,29,0.00,,,0.00,meteohub,2013-01-15 16:02:00,
2013-01-15 08:07:00,26.2,20.3,30.64,ENE,71,6.0,16.0,29,0.00,,,0.00,meteohub,2013-01-15 16:07:00,
2013-01-15 08:12:00,27.0,20.1,30.64,NE,46,6.0,16.0,29,0.00,,,0.00,meteohub,2013-01-15 16:12:00,
2013-01-15 08:17:00,27.1,20.1,30.65,NE,51,11.0,14.0,29,0.00,,,0.00,meteohub,2013-01-15 16:17:00,
2013-01-15 08:23:00,26.8,20.1,30.66,ENE,60,10.0,15.0,29,0.00,,,0.00,meteohub,2013-01-15 16:23:00,
2013-01-15 08:28:00,26.2,20.1,30.66,NNE,32,7.0,15.0,29,0.00,,,0.00,meteohub,2013-01-15 16:28:00,
2013-01-15 08:33:00,26.1,20.1,30.67,NNE,23,6.0,15.0,29,0.00,,,0.00,meteohub,2013-01-15 16:33:00,
2013-01-15 08:39:00,25.9,20.1,30.67,NNE,32,9.0,13.0,29,0.00,,,0.00,meteohub,2013-01-15 16:39:00,
2013-01-15 08:44:00,26.1,20.3,30.67,NNE,15,5.0,12.0,29,0.00,,,0.00,meteohub,2013-01-15 16:44:00,
2013-01-15 08:49:00,26.2,20.3,30.67,NNE,33,9.0,12.0,29,0.00,,,0.00,meteohub,2013-01-15 16:49:00,
2013-01-15 08:54:00,26.8,20.3,30.67,NE,45,8.0,12.0,29,0.00,,,0.00,meteohub,2013-01-15 16:54:00,
2013-01-15 09:00:00,26.8,20.7,30.67,East,84,7.0,11.0,29,0.00,,,0.00,meteohub,2013-01-15 17:00:00,
2013-01-15 09:05:00,26.6,20.7,30.68,NNE,27,6.0,12.0,29,0.00,,,0.00,meteohub,2013-01-15 17:05:00,
2013-01-15 09:10:00,27.0,20.7,30.68,NE,51,12.0,14.0,29,0.00,,,0.00,meteohub,2013-01-15 17:10:00,
2013-01-15 09:15:00,27.3,20.7,30.68,NNE,20,10.0,18.0,29,0.00,,,0.00,meteohub,2013-01-15 17:15:00,
2013-01-15 09:21:00,27.0,20.7,30.68,NNE,29,13.0,18.0,29,0.00,,,0.00,meteohub,2013-01-15 17:21:00,
2013-01-15 09:26:00,26.8,21.4,30.68,ENE,77,9.0,18.0,30,0.00,,,0.00,meteohub,2013-01-15 17:26:00,
2013-01-15 09:32:00,27.1,21.4,30.68,NE,42,19.0,19.0,30,0.00,,,0.00,meteohub,2013-01-15 17:32:00,
2013-01-15 09:37:00,27.3,21.4,30.68,ENE,67,12.0,22.0,30,0.00,,,0.00,meteohub,2013-01-15 17:37:00,
2013-01-15 09:42:00,27.3,21.4,30.68,NE,47,15.0,22.0,30,0.00,,,0.00,meteohub,2013-01-15 17:42:00,
2013-01-15 09:47:00,27.7,21.2,30.67,NNE,33,11.0,22.0,30,0.00,,,0.00,meteohub,2013-01-15 17:47:00,
2013-01-15 09:52:00,28.0,21.4,30.66,NE,38,14.0,22.0,30,0.00,,,0.00,meteohub,2013-01-15 17:52:00,
2013-01-15 09:57:00,28.2,21.2,30.66,ENE,60,17.0,23.0,30,0.00,,,0.00,meteohub,2013-01-15 17:57:00,
2013-01-15 10:03:00,28.6,21.2,30.66,NE,56,18.0,24.0,30,0.00,,,0.00,meteohub,2013-01-15 18:03:00,
2013-01-15 10:08:00,28.8,21.2,30.65,NE,43,17.0,27.0,30,0.00,,,0.00,meteohub,2013-01-15 18:08:00,
2013-01-15 10:13:00,29.1,20.3,30.64,NNE,30,15.0,27.0,29,0.00,,,0.00,meteohub,2013-01-15 18:13:00,
2013-01-15 10:18:00,29.3,20.3,30.64,NE,38,19.0,27.0,29,0.00,,,0.00,meteohub,2013-01-15 18:18:00,
2013-01-15 10:24:00,29.5,20.3,30.64,NNE,23,20.0,27.0,29,0.00,,,0.00,meteohub,2013-01-15 18:24:00,
2013-01-15 10:29:00,29.7,20.3,30.64,NE,54,23.0,27.0,29,0.00,,,0.00,meteohub,2013-01-15 18:29:00,
2013-01-15 10:34:00,29.5,20.3,30.64,NE,36,13.0,27.0,29,0.00,,,0.00,meteohub,2013-01-15 18:34:00,
2013-01-15 10:39:00,29.5,20.3,30.64,ENE,65,18.0,27.0,29,0.00,,,0.00,meteohub,2013-01-15 18:39:00,
2013-01-15 10:44:00,29.7,20.3,30.64,East,82,23.0,27.0,29,0.00,,,0.00,meteohub,2013-01-15 18:44:00,
2013-01-15 10:50:00,29.7,20.3,30.65,NNE,15,13.0,27.0,29,0.00,,,0.00,meteohub,2013-01-15 18:50:00,
2013-01-15 10:55:00,30.0,20.3,30.64,ENE,63,12.0,26.0,29,0.00,,,0.00,meteohub,2013-01-15 18:55:00,
2013-01-15 11:00:00,30.0,20.3,30.65,NE,54,19.0,22.0,29,0.00,,,0.00,meteohub,2013-01-15 19:00:00,
2013-01-15 11:05:00,30.6,20.3,30.64,NE,50,19.0,22.0,29,0.00,,,0.00,meteohub,2013-01-15 19:05:00,
2013-01-15 11:10:00,30.9,20.3,30.64,NE,46,14.0,22.0,29,0.00,,,0.00,meteohub,2013-01-15 19:10:00,
2013-01-15 11:16:00,30.9,20.3,30.64,NE,42,18.0,22.0,29,0.00,,,0.00,meteohub,2013-01-15 19:16:00,
2013-01-15 11:21:00,30.7,20.3,30.64,NNE,30,13.0,22.0,29,0.00,,,0.00,meteohub,2013-01-15 19:21:00,
2013-01-15 11:26:00,31.1,20.3,30.64,NNE,29,14.0,23.0,29,0.00,,,0.00,meteohub,2013-01-15 19:26:00,
2013-01-15 11:31:00,31.5,20.1,30.63,NNE,33,12.0,23.0,29,0.00,,,0.00,meteohub,2013-01-15 19:31:00,
2013-01-15 11:36:00,31.6,20.1,30.63,NE,56,10.0,19.0,29,0.00,,,0.00,meteohub,2013-01-15 19:36:00,
2013-01-15 11:41:00,31.6,20.1,30.64,NE,35,9.0,18.0,29,0.00,,,0.00,meteohub,2013-01-15 19:41:00,
2013-01-15 11:46:00,31.5,20.1,30.64,East,94,11.0,16.0,29,0.00,,,0.00,meteohub,2013-01-15 19:46:00,
2013-01-15 11:51:00,31.3,20.1,30.64,NE,49,9.0,16.0,29,0.00,,,0.00,meteohub,2013-01-15 19:51:00,
2013-01-15 11:56:00,31.6,20.8,30.63,NE,49,12.0,15.0,30,0.00,,,0.00,meteohub,2013-01-15 19:56:00,
2013-01-15 12:02:00,31.5,20.8,30.64,NNE,32,8.0,17.0,30,0.00,,,0.00,meteohub,2013-01-15 20:02:00,
2013-01-15 12:07:00,31.8,20.8,30.64,NE,44,10.0,17.0,30,0.00,,,0.00,meteohub,2013-01-15 20:07:00,
2013-01-15 12:12:00,32.4,20.8,30.63,NE,53,9.0,17.0,30,0.00,,,0.00,meteohub,2013-01-15 20:12:00,
2013-01-15 12:17:00,32.2,20.8,30.63,NE,49,12.0,19.0,30,0.00,,,0.00,meteohub,2013-01-15 20:17:00,
2013-01-15 12:22:00,32.2,20.8,30.63,NNE,25,14.0,19.0,30,0.00,,,0.00,meteohub,2013-01-15 20:22:00,
2013-01-15 12:28:00,32.4,20.8,30.63,NE,49,14.0,19.0,30,0.00,,,0.00,meteohub,2013-01-15 20:28:00,
2013-01-15 12:33:00,32.5,20.8,30.62,NE,43,15.0,20.0,30,0.00,,,0.00,meteohub,2013-01-15 20:33:00,
2013-01-15 12:38:00,32.5,20.8,30.62,North,4,11.0,20.0,30,0.00,,,0.00,meteohub,2013-01-15 20:38:00,
2013-01-15 12:43:00,32.5,20.8,30.62,NNE,27,13.0,20.0,30,0.00,,,0.00,meteohub,2013-01-15 20:43:00,
2013-01-15 12:49:00,33.1,20.8,30.62,NE,39,13.0,21.0,30,0.00,,,0.00,meteohub,2013-01-15 20:49:00,
2013-01-15 12:54:00,33.1,20.8,30.62,NE,34,16.0,21.0,30,0.00,,,0.00,meteohub,2013-01-15 20:54:00,
2013-01-15 12:59:00,32.9,20.8,30.62,North,357,14.0,21.0,30,0.00,,,0.00,meteohub,2013-01-15 20:59:00,
2013-01-15 13:04:00,32.9,20.8,30.62,ENE,70,12.0,23.0,30,0.00,,,0.00,meteohub,2013-01-15 21:04:00,
2013-01-15 13:09:00,32.9,20.8,30.62,NE,49,15.0,23.0,30,0.00,,,0.00,meteohub,2013-01-15 21:09:00,
2013-01-15 13:15:00,33.1,21.0,30.61,NNE,19,14.0,23.0,30,0.00,,,0.00,meteohub,2013-01-15 21:15:00,
2013-01-15 13:21:00,33.4,21.0,30.61,NNE,30,12.0,23.0,30,0.00,,,0.00,meteohub,2013-01-15 21:21:00,
2013-01-15 13:26:00,33.3,21.0,30.61,NE,56,6.0,23.0,30,0.00,,,0.00,meteohub,2013-01-15 21:26:00,
2013-01-15 13:31:00,33.4,21.0,30.61,NNE,27,11.0,20.0,30,0.00,,,0.00,meteohub,2013-01-15 21:31:00,
2013-01-15 13:36:00,33.4,21.0,30.61,NNE,29,11.0,18.0,30,0.00,,,0.00,meteohub,2013-01-15 21:36:00,
2013-01-15 13:41:00,33.3,21.0,30.61,NNE,26,14.0,16.0,30,0.00,,,0.00,meteohub,2013-01-15 21:41:00,
2013-01-15 13:46:00,33.3,21.0,30.61,NE,37,10.0,19.0,30,0.00,,,0.00,meteohub,2013-01-15 21:46:00,
2013-01-15 13:51:00,33.4,21.0,30.61,NNE,27,10.0,19.0,30,0.00,,,0.00,meteohub,2013-01-15 21:51:00,
2013-01-15 13:56:00,33.4,21.2,30.61,NE,53,7.0,19.0,30,0.00,,,0.00,meteohub,2013-01-15 21:56:00,
2013-01-15 14:02:00,34.2,21.2,30.61,NNE,20,5.0,15.0,30,0.00,,,0.00,meteohub,2013-01-15 22:02:00,
2013-01-15 14:07:00,33.8,21.2,30.61,NE,53,7.0,16.0,30,0.00,,,0.00,meteohub,2013-01-15 22:07:00,
2013-01-15 14:12:00,34.2,21.2,30.61,ENE,72,14.0,16.0,30,0.00,,,0.00,meteohub,2013-01-15 22:12:00,
2013-01-15 14:17:00,34.0,21.2,30.61,NE,40,8.0,16.0,30,0.00,,,0.00,meteohub,2013-01-15 22:17:00,
2013-01-15 14:22:00,34.2,22.1,30.61,NNE,13,9.0,15.0,31,0.00,,,0.00,meteohub,2013-01-15 22:22:00,
2013-01-15 14:27:00,34.0,22.1,30.61,NE,38,10.0,15.0,31,0.00,,,0.00,meteohub,2013-01-15 22:27:00,
2013-01-15 14:32:00,34.0,22.3,30.61,NE,43,8.0,17.0,31,0.00,,,0.00,meteohub,2013-01-15 22:32:00,
2013-01-15 14:37:00,34.0,22.3,30.61,NE,56,11.0,17.0,31,0.00,,,0.00,meteohub,2013-01-15 22:37:00,
2013-01-15 14:42:00,34.3,22.3,30.61,ENE,78,10.0,17.0,31,0.00,,,0.00,meteohub,2013-01-15 22:42:00,
2013-01-15 14:47:00,34.2,22.3,30.61,NE,39,11.0,15.0,31,0.00,,,0.00,meteohub,2013-01-15 22:47:00,
2013-01-15 14:52:00,34.2,22.5,30.61,NE,47,11.0,17.0,31,0.00,,,0.00,meteohub,2013-01-15 22:52:00,
2013-01-15 14:57:00,34.0,22.5,30.61,NNE,30,14.0,18.0,31,0.00,,,0.00,meteohub,2013-01-15 22:57:00,
2013-01-15 15:02:00,33.6,22.5,30.61,NE,36,12.0,20.0,31,0.00,,,0.00,meteohub,2013-01-15 23:02:00,
2013-01-15 15:07:00,33.6,22.6,30.61,NE,34,9.0,20.0,31,0.00,,,0.00,meteohub,2013-01-15 23:07:00,
2013-01-15 15:12:00,33.6,22.6,30.62,NE,38,9.0,20.0,31,0.00,,,0.00,meteohub,2013-01-15 23:12:00,
2013-01-15 15:18:00,33.4,22.6,30.62,NE,37,11.0,18.0,31,0.00,,,0.00,meteohub,2013-01-15 23:18:00,
2013-01-15 15:23:00,33.3,22.8,30.63,NNE,25,12.0,18.0,31,0.00,,,0.00,meteohub,2013-01-15 23:23:00,
2013-01-15 15:28:00,33.4,22.8,30.63,NNE,31,11.0,18.0,31,0.00,,,0.00,meteohub,2013-01-15 23:28:00,
2013-01-15 15:33:00,33.4,22.8,30.63,ENE,74,9.0,18.0,31,0.00,,,0.00,meteohub,2013-01-15 23:33:00,
2013-01-15 15:38:00,33.6,22.8,30.63,ENE,72,6.0,14.0,31,0.00,,,0.00,meteohub,2013-01-15 23:38:00,
2013-01-15 15:43:00,33.4,23.0,30.62,ENE,61,8.0,14.0,31,0.00,,,0.00,meteohub,2013-01-15 23:43:00,
2013-01-15 15:49:00,33.4,23.0,30.62,ENE,78,11.0,13.0,31,0.00,,,0.00,meteohub,2013-01-15 23:49:00,
2013-01-15 15:54:00,33.3,23.0,30.62,ENE,58,9.0,14.0,31,0.00,,,0.00,meteohub,2013-01-15 23:54:00,
2013-01-15 15:59:00,32.9,23.2,30.62,ENE,72,7.0,14.0,31,0.00,,,0.00,meteohub,2013-01-15 23:59:00,
2013-01-15 16:04:00,32.7,23.2,30.62,NE,44,6.0,14.0,31,0.00,,,0.00,meteohub,2013-01-16 00:04:00,
2013-01-15 16:09:00,32.4,23.4,30.62,ENE,71,5.0,15.0,31,0.00,,,0.00,meteohub,2013-01-16 00:09:00,
2013-01-15 16:14:00,32.2,23.4,30.62,East,86,5.0,15.0,31,0.00,,,0.00,meteohub,2013-01-16 00:14:00,
2013-01-15 16:20:00,31.6,23.5,30.63,NE,39,7.0,12.0,31,0.00,,,0.00,meteohub,2013-01-16 00:20:00,
2013-01-15 16:25:00,31.5,23.5,30.63,NE,51,6.0,12.0,31,0.00,,,0.00,meteohub,2013-01-16 00:25:00,
2013-01-15 16:30:00,31.5,23.9,30.63,NE,37,9.0,10.0,31,0.00,,,0.00,meteohub,2013-01-16 00:30:00,
2013-01-15 16:35:00,31.5,23.9,30.63,ENE,60,6.0,13.0,31,0.00,,,0.00,meteohub,2013-01-16 00:35:00,
2013-01-15 16:40:00,31.3,24.1,30.63,ENE,75,8.0,13.0,31,0.00,,,0.00,meteohub,2013-01-16 00:40:00,
2013-01-15 16:45:00,31.1,24.1,30.64,NE,51,9.0,12.0,31,0.00,,,0.00,meteohub,2013-01-16 00:45:00,
2013-01-15 16:51:00,30.9,24.1,30.64,ENE,58,3.0,12.0,31,0.00,,,0.00,meteohub,2013-01-16 00:51:00,
2013-01-15 16:56:00,30.9,24.1,30.64,NE,36,6.0,12.0,31,0.00,,,0.00,meteohub,2013-01-16 00:56:00,
2013-01-15 17:01:00,30.9,24.1,30.64,ENE,74,8.0,13.0,31,0.00,,,0.00,meteohub,2013-01-16 01:01:00,
2013-01-15 17:06:00,30.7,24.1,30.64,North,9,11.0,13.0,31,0.00,,,0.00,meteohub,2013-01-16 01:06:00,
2013-01-15 17:11:00,30.7,24.1,30.63,NE,56,7.0,12.0,31,0.00,,,0.00,meteohub,2013-01-16 01:11:00,
2013-01-15 17:16:00,30.7,24.1,30.63,ENE,60,9.0,13.0,31,0.00,,,0.00,meteohub,2013-01-16 01:16:00,
2013-01-15 17:21:00,30.9,24.1,30.63,NE,56,6.0,14.0,31,0.00,,,0.00,meteohub,2013-01-16 01:21:00,
2013-01-15 17:26:00,30.9,24.1,30.62,NNE,33,13.0,14.0,31,0.00,,,0.00,meteohub,2013-01-16 01:26:00,
2013-01-15 17:31:00,31.3,24.1,30.62,NE,56,13.0,16.0,31,0.00,,,0.00,meteohub,2013-01-16 01:31:00,
2013-01-15 17:37:00,31.5,24.1,30.63,ENE,70,12.0,20.0,31,0.00,,,0.00,meteohub,2013-01-16 01:37:00,
2013-01-15 17:42:00,31.5,24.1,30.63,ENE,69,13.0,20.0,31,0.00,,,0.00,meteohub,2013-01-16 01:42:00,
2013-01-15 17:47:00,31.5,24.1,30.63,NE,54,8.0,20.0,31,0.00,,,0.00,meteohub,2013-01-16 01:47:00,
2013-01-15 17:52:00,31.5,24.1,30.64,ENE,60,12.0,19.0,31,0.00,,,0.00,meteohub,2013-01-16 01:52:00,
2013-01-15 17:57:00,31.5,24.1,30.63,NE,50,16.0,19.0,31,0.00,,,0.00,meteohub,2013-01-16 01:57:00,
2013-01-15 18:02:00,31.6,24.1,30.64,NE,36,12.0,19.0,31,0.00,,,0.00,meteohub,2013-01-16 02:02:00,
2013-01-15 18:07:00,31.8,24.1,30.64,NE,44,10.0,19.0,31,0.00,,,0.00,meteohub,2013-01-16 02:07:00,
2013-01-15 18:12:00,31.8,24.1,30.64,NE,53,11.0,19.0,31,0.00,,,0.00,meteohub,2013-01-16 02:12:00,
2013-01-15 18:18:00,32.2,24.1,30.64,ENE,60,10.0,19.0,31,0.00,,,0.00,meteohub,2013-01-16 02:18:00,
2013-01-15 18:23:00,32.4,23.9,30.64,ENE,75,12.0,20.0,31,0.00,,,0.00,meteohub,2013-01-16 02:23:00,
2013-01-15 18:29:00,32.4,23.9,30.64,NNE,29,10.0,20.0,31,0.00,,,0.00,meteohub,2013-01-16 02:29:00,
2013-01-15 18:34:00,32.5,23.9,30.64,NE,51,13.0,20.0,31,0.00,,,0.00,meteohub,2013-01-16 02:34:00,
2013-01-15 18:39:00,32.7,23.9,30.64,NE,45,11.0,18.0,31,0.00,,,0.00,meteohub,2013-01-16 02:39:00,
2013-01-15 18:44:00,32.9,23.9,30.64,NE,45,16.0,18.0,31,0.00,,,0.00,meteohub,2013-01-16 02:44:00,
2013-01-15 18:49:00,32.7,22.8,30.64,ENE,68,16.0,19.0,30,0.00,,,0.00,meteohub,2013-01-16 02:49:00,
2013-01-15 18:55:00,32.7,22.8,30.64,NE,43,18.0,19.0,30,0.00,,,0.00,meteohub,2013-01-16 02:55:00,
2013-01-15 19:00:00,32.7,22.8,30.64,ENE,57,14.0,19.0,30,0.00,,,0.00,meteohub,2013-01-16 03:00:00,
2013-01-15 19:05:00,32.7,22.8,30.64,ENE,62,18.0,20.0,30,0.00,,,0.00,meteohub,2013-01-16 03:05:00,
2013-01-15 19:10:00,32.7,22.8,30.64,NE,39,13.0,21.0,30,0.00,,,0.00,meteohub,2013-01-16 03:10:00,
2013-01-15 19:15:00,32.5,22.8,30.64,ENE,58,10.0,22.0,30,0.00,,,0.00,meteohub,2013-01-16 03:15:00,
2013-01-15 19:20:00,32.5,22.8,30.64,NE,38,12.0,22.0,30,0.00,,,0.00,meteohub,2013-01-16 03:20:00,
2013-01-15 19:25:00,32.7,22.6,30.65,NNE,24,12.0,23.0,30,0.00,,,0.00,meteohub,2013-01-16 03:25:00,
2013-01-15 19:30:00,32.9,22.6,30.64,ENE,60,14.0,23.0,30,0.00,,,0.00,meteohub,2013-01-16 03:30:00,
2013-01-15 19:35:00,33.1,22.6,30.64,NE,46,17.0,24.0,30,0.00,,,0.00,meteohub,2013-01-16 03:35:00,
2013-01-15 19:40:00,33.1,22.6,30.64,NE,51,16.0,24.0,30,0.00,,,0.00,meteohub,2013-01-16 03:40:00,
2013-01-15 19:45:00,32.9,22.5,30.64,ENE,70,18.0,23.0,30,0.00,,,0.00,meteohub,2013-01-16 03:45:00,
2013-01-15 19:50:00,32.7,22.5,30.64,NNE,32,18.0,24.0,30,0.00,,,0.00,meteohub,2013-01-16 03:50:00,
2013-01-15 19:55:00,32.2,22.5,30.63,NE,37,17.0,24.0,30,0.00,,,0.00,meteohub,2013-01-16 03:55:00,
2013-01-15 20:00:00,32.0,22.5,30.62,ENE,60,18.0,26.0,30,0.00,,,0.00,meteohub,2013-01-16 04:00:00,
2013-01-15 20:06:00,31.6,22.3,30.62,NE,36,27.0,27.0,30,0.00,,,0.00,meteohub,2013-01-16 04:06:00,
2013-01-15 20:11:00,31.3,22.3,30.61,NE,41,20.0,29.0,30,0.00,,,0.00,meteohub,2013-01-16 04:11:00,
2013-01-15 20:16:00,31.8,22.3,30.62,NE,34,15.0,30.0,30,0.00,,,0.00,meteohub,2013-01-16 04:16:00,
2013-01-15 20:22:00,31.8,22.1,30.61,NE,40,27.0,32.0,30,0.00,,,0.00,meteohub,2013-01-16 04:22:00,
2013-01-15 20:27:00,31.6,21.9,30.61,NE,40,19.0,32.0,30,0.00,,,0.00,meteohub,2013-01-16 04:27:00,
2013-01-15 20:32:00,31.6,21.9,30.60,NNE,25,18.0,32.0,30,0.00,,,0.00,meteohub,2013-01-16 04:32:00,
2013-01-15 20:37:00,31.8,21.9,30.61,NE,49,27.0,31.0,30,0.00,,,0.00,meteohub,2013-01-16 04:37:00,
2013-01-15 20:43:00,31.8,21.7,30.60,ENE,60,21.0,35.0,30,0.00,,,0.00,meteohub,2013-01-16 04:43:00,
2013-01-15 20:48:00,31.8,21.7,30.59,NE,41,25.0,35.0,30,0.00,,,0.00,meteohub,2013-01-16 04:48:00,
2013-01-15 20:53:00,31.3,21.7,30.59,NE,49,30.0,35.0,30,0.00,,,0.00,meteohub,2013-01-16 04:53:00,
2013-01-15 20:58:00,30.6,21.7,30.59,NE,43,24.0,33.0,30,0.00,,,0.00,meteohub,2013-01-16 04:58:00,
2013-01-15 21:00:00,30.0,21.7,30.59,NE,38,25.0,33.0,30,0.00,,,0.00,meteohub,2013-01-16 05:00:00,
2013-01-15 21:02:00,29.7,21.7,30.59,NE,47,23.0,35.0,30,0.00,,,0.00,meteohub,2013-01-16 05:02:00,
2013-01-15 21:03:00,29.3,21.7,30.59,NNE,31,24.0,35.0,30,0.00,,,0.00,meteohub,2013-01-16 05:03:00,
2013-01-15 21:08:00,28.2,21.7,30.59,NE,34,22.0,35.0,30,0.00,,,0.00,meteohub,2013-01-16 05:08:00,
2013-01-15 21:13:00,27.7,21.7,30.59,ENE,63,30.0,32.0,30,0.00,,,0.00,meteohub,2013-01-16 05:13:00,
2013-01-15 21:18:00,27.9,21.6,30.59,NE,37,28.0,31.0,30,0.00,,,0.00,meteohub,2013-01-16 05:18:00,
2013-01-15 21:24:00,27.7,21.6,30.59,NE,38,25.0,33.0,30,0.00,,,0.00,meteohub,2013-01-16 05:24:00,
2013-01-15 21:29:00,28.0,21.6,30.59,NE,53,24.0,33.0,30,0.00,,,0.00,meteohub,2013-01-16 05:29:00,
2013-01-15 21:34:00,27.9,21.4,30.59,NE,40,22.0,34.0,30,0.00,,,0.00,meteohub,2013-01-16 05:34:00,
2013-01-15 21:40:00,28.0,21.2,30.60,NE,37,22.0,34.0,30,0.00,,,0.00,meteohub,2013-01-16 05:40:00,
2013-01-15 21:45:00,27.9,21.2,30.60,NNE,30,21.0,34.0,30,0.00,,,0.00,meteohub,2013-01-16 05:45:00,
2013-01-15 21:50:00,27.5,21.2,30.60,NNE,23,24.0,31.0,30,0.00,,,0.00,meteohub,2013-01-16 05:50:00,
2013-01-15 21:55:00,27.7,21.0,30.61,NNE,26,17.0,30.0,30,0.00,,,0.00,meteohub,2013-01-16 05:55:00,
2013-01-15 22:00:00,27.5,21.0,30.61,NE,36,21.0,30.0,30,0.00,,,0.00,meteohub,2013-01-16 06:00:00,
2013-01-15 22:06:00,27.9,21.0,30.61,NE,45,17.0,28.0,30,0.00,,,0.00,meteohub,2013-01-16 06:06:00,
2013-01-15 22:11:00,28.9,21.2,30.61,NE,40,18.0,25.0,30,0.00,,,0.00,meteohub,2013-01-16 06:11:00,
2013-01-15 22:17:00,29.8,21.2,30.61,NNE,27,22.0,28.0,30,0.00,,,0.00,meteohub,2013-01-16 06:17:00,
2013-01-15 22:22:00,30.7,21.4,30.60,NNE,25,24.0,28.0,30,0.00,,,0.00,meteohub,2013-01-16 06:22:00,
2013-01-15 22:27:00,31.1,21.6,30.59,ENE,60,24.0,33.0,30,0.00,,,0.00,meteohub,2013-01-16 06:27:00,
2013-01-15 22:32:00,31.5,21.7,30.58,NNE,27,30.0,33.0,30,0.00,,,0.00,meteohub,2013-01-16 06:32:00,
2013-01-15 22:37:00,31.5,21.7,30.58,NE,51,23.0,33.0,30,0.00,,,0.00,meteohub,2013-01-16 06:37:00,
2013-01-15 22:43:00,31.5,21.7,30.58,NE,42,26.0,37.0,30,0.00,,,0.00,meteohub,2013-01-16 06:43:00,
2013-01-15 22:48:00,31.3,21.7,30.59,ENE,63,22.0,37.0,30,0.00,,,0.00,meteohub,2013-01-16 06:48:00,
2013-01-15 22:53:00,30.7,21.7,30.60,NE,34,21.0,33.0,30,0.00,,,0.00,meteohub,2013-01-16 06:53:00,
2013-01-15 22:59:00,29.7,21.7,30.61,NE,46,19.0,32.0,30,0.00,,,0.00,meteohub,2013-01-16 06:59:00,
2013-01-15 23:04:00,29.1,21.7,30.61,NNE,19,19.0,32.0,30,0.00,,,0.00,meteohub,2013-01-16 07:04:00,
2013-01-15 23:09:00,29.8,21.7,30.61,NE,34,18.0,29.0,30,0.00,,,0.00,meteohub,2013-01-16 07:09:00,
2013-01-15 23:14:00,30.2,21.7,30.61,NE,44,17.0,26.0,30,0.00,,,0.00,meteohub,2013-01-16 07:14:00,
2013-01-15 23:19:00,30.9,21.6,30.61,NE,56,20.0,25.0,30,0.00,,,0.00,meteohub,2013-01-16 07:19:00,
2013-01-15 23:24:00,31.8,21.6,30.62,NE,38,18.0,27.0,30,0.00,,,0.00,meteohub,2013-01-16 07:24:00,
2013-01-15 23:29:00,31.8,21.6,30.61,ENE,68,17.0,27.0,30,0.00,,,0.00,meteohub,2013-01-16 07:29:00,
2013-01-15 23:34:00,32.7,21.6,30.61,NNE,30,19.0,27.0,30,0.00,,,0.00,meteohub,2013-01-16 07:34:00,
2013-01-15 23:39:00,33.8,21.6,30.61,ENE,77,18.0,26.0,30,0.00,,,0.00,meteohub,2013-01-16 07:39:00,
2013-01-15 23:45:00,34.7,21.4,30.61,NNE,33,24.0,30.0,30,0.00,,,0.00,meteohub,2013-01-16 07:45:00,
2013-01-15 23:50:00,35.1,21.4,30.61,NE,49,25.0,30.0,30,0.00,,,0.00,meteohub,2013-01-16 07:50:00,
2013-01-15 23:55:00,35.2,21.4,30.62,NE,35,21.0,30.0,30,0.00,,,0.00,meteohub,2013-01-16 07:55:00,